Powrót do katalogu

STARLINK-1362

AktywnyŁącznośćVLEO
NORAD 45538·PAYLOAD·🇺🇸 United States

Wystrzelony Apr 22, 2020 z Cape Canaveral Space Force Station

Loading…

Następne Przeloty (najbliższe 24 godziny)

TLE

ŚwieżeSource: CelesTrak SupGP

Epoka: Sep 14, 2026, 20:30 UTC

1 45538C 20025H   26257.85465278  .00028079  00000+0  57151-3 0  2575
2 45538  53.1515 292.2167 0001959  74.9185 253.3267 15.45666758    16

Śledź STARLINK-1362 w czasie rzeczywistym z AllMySat

Download on the App Store